Location: ????
(33.2847°N, 35.6931°E)
Time: 03:25:00
(UTC+00:00)

Daily predictions for brighter satellites

Satellite Brightness Start Highest point End
(mag) Time Altitude Azimuth Time Altitude Azimuth Time Altitude Azimuth
CENTAUR R/B 3.8 00:11:48 34° NNE 00:11:48 34° NNE 00:15:26 10° NNE
ADEOS II 4.4 00:14:19 10° NNE 00:15:30 17° N 00:15:30 17° N
Cosmos 2369 Rocket 4.0 00:25:43 25° N 00:25:43 25° N 00:27:59 10° NNE
Cosmos 2344 4.3 00:44:19 37° NNW 00:44:19 37° NNW 00:50:37 10° NNE
Atlas Centaur 2 2.9 00:46:51 56° SE 00:46:51 56° SE 00:53:03 10° ESE
Cosmos 1092 Rocket 4.2 00:46:31 66° NE 00:46:31 66° NE 00:51:51 10° N
SeaSat 1 3.4 00:49:57 10° NE 00:54:34 42° ESE 00:54:34 42° ESE
ADEOS 4.0 00:58:11 10° NNE 01:03:20 58° E 01:03:53 55° SE
Cosmos 1943 Rocket 4.0 01:08:04 18° NNW 01:08:04 18° NNW 01:10:00 10° N
Cosmos 1627 Rocket 4.4 01:08:10 60° S 01:09:28 87° E 01:15:52 10° N
Centaur D-1AR AC-36 3.6 01:09:54 31° S 01:10:14 31° SSE 01:21:13 10° ESE
NOSS 3-3 (A) 4.5 01:02:46 10° NW 01:10:31 65° WSW 01:18:49 10° SSE
NOSS 3-3 (C) 4.5 01:02:52 10° NW 01:10:38 66° WSW 01:18:56 10° SSE
USA 215 3.6 01:05:20 10° NE 01:11:45 57° SE 01:14:04 38° S
Cosmos 1812 4.0 01:13:12 39° ENE 01:13:12 39° ENE 01:16:13 10° NNE
Cosmos 1315 Rocket 3.8 01:15:59 43° ESE 01:16:20 45° E 01:20:17 10° NNE
ATLAS 3B R/B 3.6 01:19:23 29° NW 01:19:23 29° NW 01:24:41 10° N
Hubble Space Telescope 2.2 01:24:59 30° SE 01:24:59 30° SE 01:27:28 10° ESE
Shenzhou-11 Module 4.3 01:35:52 20° ESE 01:35:52 20° ESE 01:37:13 10° E
Lacrosse 5 rocket 1.4 01:35:50 61° NNW 01:36:35 87° NE 01:41:06 10° SE
Cosmos 773 Rocket 3.8 01:37:44 53° SW 01:38:48 70° WNW 01:43:58 10° NNE
Cosmos 2242 Rocket 3.5 01:41:13 43° SSW 01:42:39 81° W 01:47:11 10° N
OAO 2 Rocket 3.2 01:42:57 54° SW 01:44:00 75° SSE 01:48:54 10° ENE
Cosmos 2026 Rocket 4.1 01:42:09 38° SW 01:44:03 51° W 01:50:13 10° N
IDEFIX/ARIANE 42P 2.5 01:39:35 10° N 01:44:48 62° WNW 01:46:45 37° SW
Iridium 4 Rocket 4.1 01:46:21 30° NW 01:46:21 30° NW 01:48:59 10° NNW
USA 81 4.0 01:42:59 37° SSW 01:44:57 62° W 01:50:11 10° N
Cosmos 1862 Rocket 4.0 01:47:34 42° WNW 01:47:34 42° WNW 01:51:22 10° N
Meteor 1-5 Rocket 4.1 01:44:09 10° N 01:49:40 81° W 01:55:21 10° S
Meteor 1-31 Rocket 3.9 01:46:21 10° NNE 01:50:06 43° E 01:53:46 10° S
H-2A R/B 2.2 01:47:59 10° N 01:51:45 57° WNW 01:51:54 56° W
Cosmos 1340 3.3 01:48:59 10° N 01:52:42 57° E 01:56:25 10° SSE
Timation 2 Rocket 3.9 01:49:47 10° NNW 01:55:48 83° ENE 02:01:47 10° SSE
Cosmos 44 Rocket 3.3 01:54:47 36° SW 01:56:45 64° WNW 02:01:42 10° NNE
ASTRO E2 2.7 01:56:16 50° SW 01:57:05 65° S 02:01:03 10° E
Okean 1-7 3.4 01:56:13 10° S 02:00:34 65° E 02:04:56 10° NNE
CENTAUR R/B 4.1 01:59:00 15° NW 02:00:35 16° NW 02:04:38 10° N
Cosmos 1536 2.7 02:00:28 10° N 02:04:27 88° E 02:08:25 10° S
Cosmos 923 Rocket 4.5 01:59:32 10° S 02:04:47 64° ESE 02:10:05 10° NNE
Cosmos 1655 Rocket 3.9 01:59:04 10° SSW 02:05:14 72° W 02:11:30 10° N
Cosmos 1346 Rocket 2.7 02:01:16 10° N 02:05:22 86° W 02:09:26 10° S
H-II Stage 2 3.2 02:07:26 26° SW 02:09:12 39° S 02:21:04 10° ESE
MSX 3.9 02:04:06 10° N 02:09:43 58° WNW 02:15:19 10° SSW
Chunghua 1 4.3 02:08:34 36° W 02:09:58 86° SSW 02:13:40 10° ESE
CZ-2C R/B 2.4 02:09:27 10° N 02:14:25 77° WNW 02:19:30 10° SSW
Cosmos 1538 Rocket 4.4 02:11:41 23° SW 02:14:25 40° WNW 02:19:18 10° N
Yuri Rocket 4.2 02:12:52 23° WSW 02:16:19 56° S 02:23:45 10° ESE
Cosmos 1484 Rocket 4.5 02:13:57 10° NNE 02:17:21 33° E 02:20:43 10° SSE
Lacrosse 5 3.7 02:13:33 10° NNW 02:18:02 31° NE 02:22:30 10° ESE
S3M 3.9 02:12:30 10° N 02:18:43 80° W 02:25:00 10° S
TSX-5 3.3 02:15:32 11° SSW 02:18:55 82° ESE 02:22:04 10° NNE
Cosmos 1908 Rocket 3.5 02:19:03 10° NNW 02:23:20 62° W 02:27:36 10° S
CZ-4B R/B 3.1 02:20:08 10° N 02:24:37 65° WNW 02:28:59 10° SSW
OAO 3 Rocket 3.4 02:24:56 17° SW 02:28:23 59° SSE 02:32:58 10° E
Cosmos 1500 4.0 02:25:51 10° NNW 02:29:02 27° W 02:32:15 10° SSW
OAO 1 Rocket 4.4 02:25:59 16° W 02:30:16 75° SSW 02:35:36 10° ESE
SeaSat 1 3.8 02:28:09 10° N 02:31:49 21° NW 02:34:22 15° W
Atlas Centaur 2 3.3 02:29:29 16° W 02:34:54 46° SSW 02:42:36 10° SE
Okean O Rocket 2.9 02:35:06 10° NNE 02:39:23 44° E 02:43:37 10° S
BREEZE-M DEB (TANK) 2.5 02:36:44 10° SW 02:42:02 83° NW 02:44:27 10° NE
SL-4 R/B 1.6 02:42:40 10° NW 02:46:13 84° SW 02:49:59 10° SE
EP 3 4.1 02:44:49 10° SW 02:47:06 46° WNW 02:49:09 10° NNE
Cosmos 2266 Rocket 4.2 02:45:27 10° SSW 02:51:16 45° W 02:57:02 10° N
PAYLOAD B 4.4 02:46:39 10° NNE 02:52:18 84° ESE 02:57:52 10° SSW
USA 215 4.0 02:48:38 10° NNE 02:54:30 37° NW 03:00:21 10° W
ATLAS CENTAUR R/B 4.5 02:53:09 10° NNE 02:54:53 12° NE 02:56:34 10° ENE
Cosmos 1743 2.8 02:52:47 10° N 02:56:42 89° ENE 03:00:35 10° S
MOS 1-B 4.4 02:51:27 10° N 02:57:11 65° WNW 03:02:55 10° SSW
Abrixas rocket 2.4 02:54:50 10° SW 02:57:48 61° SE 03:00:48 10° ENE
Sakura Rocket 4.1 02:53:46 10° W 02:58:11 46° S 03:04:12 10° ESE
Cosmos 883 Rocket 4.5 02:53:50 10° NNW 02:59:51 63° W 03:05:52 10° S
SKYMED 2 3.7 02:56:23 10° SSE 03:00:42 86° E 03:05:04 10° N
CZ-3 R/B 3.6 02:57:58 10° W 03:21:49 40° SW 03:28:53 10° SSE
